Simultaneous Nadir Overpasses (SNOs) Predictions

Prediction of SNOs between METOP-A and NOAA-19 Satellite Orbit:

Table of predicted SNOs for the next 14.0 days since TLE Epoch: 8/21/2021
Index Date (METOP-A) Time (METOP-A) Lat,Lon (METOP-A) SZA (METOP-A ) Date (NOAA-19) Time (NOAA-19) Lat,Lon (NOAA-19) SZA (NOAA-19 ) Distance(km) Time Diff (sec)
1 08/30/2021 19:21:00 80.65,-106.26 71.92 08/30/2021 19:19:48 80.65,-106.27 71.91 0.34 72
2 08/30/2021 20:11:41 -80.66, 61.19 108.06 08/30/2021 20:10:49 -80.66, 61.19 108.07 0.55 52
3 08/30/2021 21:02:21 80.67,-131.42 71.96 08/30/2021 21:01:47 80.67,-131.31 71.96 1.95 34
4 08/30/2021 21:53:03 -80.65, 35.70 108.05 08/30/2021 21:52:49 -80.66, 35.78 108.04 1.80 14
5 08/30/2021 22:43:42 80.68,-156.58 72.00 08/30/2021 22:43:47 80.67,-156.72 71.99 2.72 5
6 08/30/2021 23:34:23 -80.69, 10.87 107.98 08/30/2021 23:34:48 -80.67, 10.72 107.99 2.99 25
7 08/31/2021 00:25:04 80.67, 177.92 72.01 08/31/2021 00:25:47 80.67, 177.88 72.02 0.84 43



Historial Predications of SNOs between METOP-A and NOAA-19
